ポンス-ブルックス彗星

12P/Pons-Brooks (2024)

English version
Home page
Updated on May 31, 2025

---------------------------------------------------------------------

・ プロフィール

検出日 2020年6月10日
検出光度 22.8等
検出者 M. M. Knight, C. E. Holt, Q.-Z. Ye, L. M. Feaga, M. S. P. Kelley, L. Shumar, J. Sanborn, A. Hayslip (Lowell Observatory)

・ 写真集

・ 軌道要素

Epoch 2025 May 5.0 TT = JDT 2460800.5
T 2024 Apr. 21.13707 TT                                 Payne
q   0.7810702            (2000.0)            P               Q
n   0.01378649     Peri.  199.00512     +0.14500158     -0.32936142
a  17.2253023      Node   255.85629     +0.98570086     +0.12989427
e   0.9546556      Incl.   74.19009     +0.08583907     -0.93522646
P  71.5
From 4397 observations 2023 Oct. 1-2025 Apr. 29, mean residual 0".6.
     Nongravitational parameters A1 = +0.61, A2 = -0.2236.

・ 星図

・ 光度変化

        H = 12.5  G = 0.15                       [    ,-840]  (              〜2022年 1月 2日)
        m1 = 5.0 + 5 logΔ + 13.5 log r          [-840,-276]  (2022年 1月 2日〜2023年 7月20日)
        m1 = 9.0 + 5 logΔ +  0.0 log r          [-276,-158]  (2023年 7月20日〜2023年11月15日)
        m1 = 8.5 + 5 logΔ -  5.0 log r          [-158,-100]  (2023年11月15日〜2024年 1月12日)
        m1 = 4.6 + 5 logΔ +  9.5 log r          [-100,  14]  (2024年 1月12日〜2024年 5月 5日)
        m1 = 4.3 + 5 logΔ + 11.0 log r(t + 10)  [  14,    ]  (2024年 5月 5日〜2024年10月13日)
        m1 = 5.0 + 5 logΔ + 13.5 log r          [ 175,    ]  (2024年10月13日〜              )

---------------------------------------------------------------------

軌道要素はM.P.E.C. 2025-J08に掲載されたものです。
星図はステラナビゲータ Ver.10 (アストロアーツ) で作成したものです。
光度グラフはComet for Windowsで作成したものです。

---------------------------------------------------------------------

Copyright(C) Seiichi Yoshida (comet@aerith.net). All rights reserved.